Time,TemperatureF,DewpointF,PressureIn,WindDirection,WindDirectionDegrees,WindSpeedMPH,WindSpeedGustMPH,Humidity,HourlyPrecipIn,Conditions,Clouds,dailyrainin,SolarRadiationWatts/m^2,SoftwareType,DateUTC
2013-12-18 07:42:00,34.0,25.0,-100.00,ESE,119,4.0,7.0,70,-99.99,,,0.00,0.000000,,2013-12-18 14:42:00,
2013-12-18 08:44:00,34.0,25.0,-100.00,SE,124,6.0,9.0,68,-99.99,,,0.00,3.000000,,2013-12-18 15:44:00,
2013-12-18 08:53:00,34.0,25.0,-100.00,SE,124,6.0,9.0,68,-99.99,,,0.00,3.000000,,2013-12-18 15:53:00,
2013-12-18 09:42:00,38.0,28.0,-100.00,SE,139,7.0,10.0,66,0.00,,,0.00,44.000000,,2013-12-18 16:42:00,
2013-12-18 09:53:00,38.0,28.0,-100.00,SE,139,7.0,10.0,66,0.00,,,0.00,44.000000,,2013-12-18 16:53:00,
2013-12-18 10:22:00,39.0,28.0,-100.00,SE,140,7.0,10.0,64,0.00,,,0.00,132.000000,,2013-12-18 17:22:00,
2013-12-18 10:33:00,39.0,28.0,-100.00,SE,140,7.0,10.0,64,0.00,,,0.00,132.000000,,2013-12-18 17:33:00,
2013-12-18 10:42:00,39.0,28.0,-100.00,SE,140,7.0,10.0,64,0.00,,,0.00,132.000000,,2013-12-18 17:42:00,
2013-12-18 10:52:00,39.0,28.0,-100.00,SE,140,7.0,10.0,64,0.00,,,0.00,132.000000,,2013-12-18 17:52:00,
2013-12-18 11:42:00,42.0,30.0,-100.00,East,83,5.0,12.0,63,0.00,,,0.00,183.000000,,2013-12-18 18:42:00,
2013-12-18 11:52:00,42.0,30.0,-100.00,East,83,5.0,12.0,63,0.00,,,0.00,183.000000,,2013-12-18 18:52:00,
2013-12-18 12:21:00,43.0,24.0,-100.00,ESE,117,3.0,8.0,46,0.00,,,0.00,214.000000,,2013-12-18 19:21:00,
2013-12-18 12:32:00,43.0,24.0,-100.00,ESE,117,3.0,8.0,46,0.00,,,0.00,214.000000,,2013-12-18 19:32:00,
2013-12-18 12:42:00,43.0,24.0,-100.00,ESE,117,3.0,8.0,46,0.00,,,0.00,214.000000,,2013-12-18 19:42:00,
2013-12-18 12:52:00,43.0,24.0,-100.00,ESE,117,3.0,8.0,46,0.00,,,0.00,214.000000,,2013-12-18 19:52:00,
2013-12-18 13:42:00,44.0,29.0,-100.00,North,354,3.0,6.0,55,0.00,,,0.00,183.000000,,2013-12-18 20:42:00,
2013-12-18 13:52:00,44.0,29.0,-100.00,North,354,3.0,6.0,55,0.00,,,0.00,183.000000,,2013-12-18 20:52:00,
2013-12-18 14:43:00,46.0,28.0,-100.00,NNE,14,2.0,6.0,50,0.00,,,0.00,174.000000,,2013-12-18 21:43:00,
2013-12-18 14:53:00,46.0,28.0,-100.00,NNE,14,2.0,6.0,50,0.00,,,0.00,174.000000,,2013-12-18 21:53:00,
2013-12-18 15:22:00,42.0,28.0,-100.00,North,5,4.0,6.0,58,0.00,,,0.00,114.000000,,2013-12-18 22:22:00,
2013-12-18 15:33:00,42.0,28.0,-100.00,North,5,4.0,6.0,58,0.00,,,0.00,114.000000,,2013-12-18 22:33:00,
2013-12-18 15:43:00,42.0,28.0,-100.00,North,5,4.0,6.0,58,0.00,,,0.00,114.000000,,2013-12-18 22:43:00,
2013-12-18 15:52:00,42.0,28.0,-100.00,North,5,4.0,6.0,58,0.00,,,0.00,114.000000,,2013-12-18 22:52:00,
2013-12-18 16:42:00,39.0,26.0,-100.00,SE,143,3.0,8.0,59,0.00,,,0.00,42.000000,,2013-12-18 23:42:00,
2013-12-18 16:53:00,39.0,26.0,-100.00,SE,143,3.0,8.0,59,0.00,,,0.00,42.000000,,2013-12-18 23:53:00,
2013-12-18 17:22:00,39.0,26.0,-100.00,NE,55,5.0,7.0,60,0.00,,,0.00,5.000000,,2013-12-19 00:22:00,
2013-12-18 17:32:00,39.0,26.0,-100.00,NE,55,5.0,7.0,60,0.00,,,0.00,5.000000,,2013-12-19 00:32:00,
2013-12-18 17:42:00,39.0,26.0,-100.00,NE,55,5.0,7.0,60,0.00,,,0.00,5.000000,,2013-12-19 00:42:00,
2013-12-18 17:52:00,39.0,26.0,-100.00,NE,55,5.0,7.0,60,0.00,,,0.00,5.000000,,2013-12-19 00:52:00,
2013-12-18 18:42:00,34.0,23.0,-100.00,NW,326,5.0,7.0,65,0.00,,,-99.99,0.000000,,2013-12-19 01:42:00,
2013-12-18 18:52:00,34.0,23.0,-100.00,NW,326,5.0,7.0,65,0.00,,,-99.99,0.000000,,2013-12-19 01:52:00,
2013-12-18 19:52:00,35.0,27.0,-100.00,East,80,4.0,6.0,71,0.00,,,0.00,0.000000,,2013-12-19 02:52:00,
2013-12-18 20:43:00,34.0,25.0,-100.00,East,98,2.0,7.0,70,0.00,,,0.00,0.000000,,2013-12-19 03:43:00,
2013-12-18 20:53:00,34.0,25.0,-100.00,East,98,2.0,7.0,70,0.00,,,0.00,0.000000,,2013-12-19 03:53:00,
2013-12-18 21:43:00,33.0,25.0,-100.00,ENE,73,6.0,10.0,73,0.00,,,-99.99,0.000000,,2013-12-19 04:43:00,
2013-12-18 21:53:00,33.0,25.0,-100.00,ENE,73,6.0,10.0,73,0.00,,,-99.99,0.000000,,2013-12-19 04:53:00,
2013-12-18 22:42:00,30.0,24.0,-100.00,ENE,76,8.0,13.0,79,0.00,,,-99.99,0.000000,,2013-12-19 05:42:00,
2013-12-18 22:52:00,30.0,24.0,-100.00,ENE,76,8.0,13.0,79,0.00,,,-99.99,0.000000,,2013-12-19 05:52:00,
2013-12-18 23:42:00,29.0,25.0,-100.00,NW,318,3.0,13.0,84,0.00,,,0.00,0.000000,,2013-12-19 06:42:00,
2013-12-18 23:52:00,29.0,25.0,-100.00,NW,318,3.0,13.0,84,0.00,,,0.00,0.000000,,2013-12-19 06:52:00,